Stations météo

Publicité
Cluanie Inn No 3, Grande-Bretagne (99117): Température de l'air & dewpoint: 14.02.2018 00:00:00 - 20.02.2018 00:00:00 (GMT)Cluanie Inn No 3, Grande-Bretagne (99117): Quantités de précipitations: 14.02.2018 00:00:00 - 20.02.2018 00:00:00 (GMT)
Date & Time tt [°C] td [°C] rr [mm]
20.02.2018 00:00:00 - - -
19.02.2018 23:00:00 5,3 3,7 0,2
19.02.2018 22:00:00 5,9 4,3 0,4
19.02.2018 21:00:00 6,4 4,9 0,4
19.02.2018 20:00:00 5,6 5,2 0,2
19.02.2018 19:00:00 6,1 5,3 0,0
19.02.2018 18:00:00 6,6 5,7 0,0
19.02.2018 17:00:00 7,0 6,4 0,0
19.02.2018 16:00:00 7,6 7,0 0,0
19.02.2018 15:00:00 7,6 6,9 0,2
19.02.2018 14:00:00 7,9 6,8 0,0
19.02.2018 13:00:00 7,8 6,8 0,0
19.02.2018 12:00:00 8,5 8,1 0,0
19.02.2018 11:00:00 7,2 7,1 0,0
19.02.2018 10:00:00 6,3 6,3 0,0
19.02.2018 09:00:00 5,7 5,6 0,2
19.02.2018 08:00:00 5,3 5,2 0,2
19.02.2018 07:00:00 6,4 6,4 0,4
19.02.2018 06:00:00 5,5 5,5 1,0
19.02.2018 05:00:00 4,4 4,3 0,4
19.02.2018 04:00:00 4,2 4,1 0,2
19.02.2018 03:00:00 4,1 4,0 0,4
19.02.2018 02:00:00 4,1 3,9 0,4
19.02.2018 01:00:00 3,9 3,7 0,2
19.02.2018 00:00:00 3,9 3,6 0,4
18.02.2018 23:00:00 3,9 3,5 0,4
18.02.2018 22:00:00 4,0 3,6 0,4
18.02.2018 21:00:00 4,3 3,6 0,4
18.02.2018 20:00:00 4,1 3,4 0,6
18.02.2018 19:00:00 3,2 2,5 1,2
18.02.2018 18:00:00 3,2 2,3 1,0
18.02.2018 17:00:00 3,4 2,1 0,4
18.02.2018 16:00:00 3,9 2,2 0,4
18.02.2018 15:00:00 4,5 2,5 0,2
18.02.2018 14:00:00 4,8 2,0 0,0
18.02.2018 13:00:00 4,9 1,9 0,0
18.02.2018 12:00:00 4,3 2,0 0,0
18.02.2018 11:00:00 3,6 2,0 0,0
18.02.2018 10:00:00 3,7 1,9 0,0
18.02.2018 09:00:00 2,9 1,6 0,0
18.02.2018 08:00:00 2,8 1,3 0,0
18.02.2018 07:00:00 2,6 1,3 0,0
18.02.2018 06:00:00 1,6 1,0 0,0
18.02.2018 05:00:00 1,6 1,2 0,0
18.02.2018 04:00:00 0,6 0,2 0,0
18.02.2018 03:00:00 1,0 0,5 0,0
18.02.2018 02:00:00 1,4 0,9 0,0
18.02.2018 01:00:00 1,6 1,1 0,0
18.02.2018 00:00:00 1,4 1,0 0,0
17.02.2018 23:00:00 1,2 0,7 0,0
17.02.2018 22:00:00 1,4 0,9 0,2
17.02.2018 21:00:00 1,7 1,3 0,0
17.02.2018 20:00:00 1,2 0,8 0,0
17.02.2018 19:00:00 1,4 0,8 0,8
17.02.2018 18:00:00 2,5 1,4 2,6
17.02.2018 17:00:00 3,3 1,4 0,8
17.02.2018 16:00:00 3,2 1,5 1,2
17.02.2018 15:00:00 4,0 2,0 0,4
17.02.2018 14:00:00 4,4 1,4 0,0
17.02.2018 13:00:00 5,6 1,4 0,4
17.02.2018 12:00:00 3,7 0,8 0,0
17.02.2018 11:00:00 3,0 0,6 1,0
17.02.2018 10:00:00 3,2 2,0 0,0
17.02.2018 09:00:00 1,7 0,7 1,4
17.02.2018 08:00:00 1,8 1,0 0,2
17.02.2018 07:00:00 1,4 0,6 0,6
17.02.2018 06:00:00 2,0 0,9 2,0
17.02.2018 05:00:00 2,7 1,4 0,2
17.02.2018 04:00:00 2,8 1,1 1,2
17.02.2018 03:00:00 2,9 0,9 0,8
17.02.2018 02:00:00 2,8 1,1 1,0
17.02.2018 01:00:00 4,4 0,8 0,0
17.02.2018 00:00:00 4,5 1,2 0,2
16.02.2018 23:00:00 2,2 1,4 1,6
16.02.2018 22:00:00 3,2 1,4 1,4
16.02.2018 21:00:00 4,0 1,2 1,0
16.02.2018 20:00:00 4,1 0,7 1,0
16.02.2018 19:00:00 4,6 0,5 0,4
16.02.2018 18:00:00 4,6 0,8 0,2
16.02.2018 17:00:00 3,7 0,9 0,8
16.02.2018 16:00:00 3,7 0,5 0,2
16.02.2018 15:00:00 4,4 -0,3 0,0
16.02.2018 14:00:00 3,5 1,0 0,0
16.02.2018 13:00:00 2,6 0,9 1,0
16.02.2018 12:00:00 3,1 0,6 0,4
16.02.2018 11:00:00 3,5 -0,1 0,0
16.02.2018 10:00:00 3,7 -0,1 0,0
16.02.2018 09:00:00 3,0 -1,1 0,8
16.02.2018 08:00:00 1,4 0,8 0,2
16.02.2018 07:00:00 0,8 0,0 1,4
16.02.2018 06:00:00 2,1 -0,2 0,2
16.02.2018 05:00:00 2,7 -0,8 0,0
16.02.2018 04:00:00 3,1 -1,8 0,0
16.02.2018 03:00:00 2,6 -1,1 0,2
16.02.2018 02:00:00 3,0 -2,0 0,0
16.02.2018 01:00:00 3,0 -1,4 0,2
16.02.2018 00:00:00 2,4 0,3 0,8
15.02.2018 23:00:00 1,7 -0,4 1,0
15.02.2018 22:00:00 2,0 0,3 1,8
15.02.2018 21:00:00 2,8 -0,2 0,6
15.02.2018 20:00:00 2,2 0,8 2,6
15.02.2018 19:00:00 2,6 -0,1 2,2
15.02.2018 18:00:00 2,5 0,7 1,0
15.02.2018 17:00:00 2,7 0,5 2,2
15.02.2018 16:00:00 1,7 0,6 3,4
15.02.2018 15:00:00 2,2 0,7 2,8
15.02.2018 14:00:00 3,6 0,4 0,2
15.02.2018 13:00:00 3,4 0,5 5,0
15.02.2018 12:00:00 1,3 0,5 3,6
15.02.2018 11:00:00 1,2 0,2 2,0
15.02.2018 10:00:00 2,7 -0,8 0,8
15.02.2018 09:00:00 3,4 -1,7 2,0
15.02.2018 08:00:00 2,5 -1,5 0,8
15.02.2018 07:00:00 2,7 -1,7 0,4
15.02.2018 06:00:00 1,6 -0,4 0,2
15.02.2018 05:00:00 0,6 -0,2 0,0
15.02.2018 04:00:00 2,2 -1,0 0,2
15.02.2018 03:00:00 2,9 -1,4 1,0
15.02.2018 02:00:00 3,4 -1,1 1,0
15.02.2018 01:00:00 2,9 -0,4 1,0
15.02.2018 00:00:00 2,4 -1,2 0,4
14.02.2018 23:00:00 4,3 -1,9 0,0
14.02.2018 22:00:00 5,0 -2,8 0,0
14.02.2018 21:00:00 4,4 -1,9 0,0
14.02.2018 20:00:00 4,9 -3,0 0,0
14.02.2018 19:00:00 4,8 -1,3 0,0
14.02.2018 18:00:00 4,6 -0,6 1,6
14.02.2018 17:00:00 4,0 0,0 0,6
14.02.2018 16:00:00 2,7 0,9 2,6
14.02.2018 15:00:00 3,8 1,1 0,2
14.02.2018 14:00:00 3,7 0,7 2,8
14.02.2018 13:00:00 1,7 0,8 3,8
14.02.2018 12:00:00 1,0 0,4 1,8
14.02.2018 11:00:00 0,4 0,1 0,8
14.02.2018 10:00:00 0,7 0,1 1,6
14.02.2018 09:00:00 3,1 0,1 0,0
14.02.2018 08:00:00 3,5 -1,1 0,0
14.02.2018 07:00:00 2,9 -1,6 0,0
14.02.2018 06:00:00 2,5 -2,2 0,0
14.02.2018 05:00:00 2,2 -2,8 0,0
14.02.2018 04:00:00 2,3 -4,2 0,0
14.02.2018 03:00:00 2,2 -3,6 0,0
14.02.2018 02:00:00 1,6 -2,4 0,2
14.02.2018 01:00:00 2,3 -2,9 0,2
14.02.2018 00:00:00 2,3 -1,7 0,2

tt = Température de l'air
td = dewpoint
rr = Quantités de précipitations

stations d'obs. à proximité